Satellite: OBJECT D Catalog number: 41786 Epoch time: 16273.77300866 Element set: 999 Inclination: 98.1952 deg RA of node: 331.3211 deg Eccentricity: 0.0026994 Arg of perigee: 263.7093 deg Mean anomaly: 213.3702 deg Mean motion: 14.63938446 rev/day Decay rate: 7.14965e-03 rev/day^2 Epoch rev: 49 Checksum: 334
Satellite: OBJECT E Catalog number: 41787 Epoch time: 16273.70372953 Element set: 999 Inclination: 98.2065 deg RA of node: 331.2389 deg Eccentricity: 0.0029405 Arg of perigee: 256.1344 deg Mean anomaly: 217.6954 deg Mean motion: 14.63441212 rev/day Decay rate: 2.65e-06 rev/day^2 Epoch rev: 48 Checksum: 309
Satellite: OBJECT F Catalog number: 41788 Epoch time: 16273.70559420 Element set: 999 Inclination: 98.2066 deg RA of node: 331.2381 deg Eccentricity: 0.0028509 Arg of perigee: 258.6686 deg Mean anomaly: 227.1994 deg Mean motion: 14.63619690 rev/day Decay rate: 5.64e-06 rev/day^2 Epoch rev: 48 Checksum: 338
Satellite: OBJECT G Catalog number: 41789 Epoch time: 16273.14415428 Element set: 999 Inclination: 98.2079 deg RA of node: 330.6857 deg Eccentricity: 0.0027193 Arg of perigee: 253.3961 deg Mean anomaly: 159.4261 deg Mean motion: 14.63952447 rev/day Decay rate: 8.50e-06 rev/day^2 Epoch rev: 41 Checksum: 322
Satellite: OBJECT H Catalog number: 41790 Epoch time: 16273.31231568 Element set: 999 Inclination: 98.1060 deg RA of node: 327.8380 deg Eccentricity: 0.0010333 Arg of perigee: 225.2255 deg Mean anomaly: 198.9152 deg Mean motion: 14.50098024 rev/day Decay rate: -3.3e-07 rev/day^2 Epoch rev: 45 Checksum: 278
Satellite: OBJECT J Catalog number: 41791 Epoch time: 16273.75206038 Element set: 999 Inclination: 98.2061 deg RA of node: 331.2840 deg Eccentricity: 0.0032417 Arg of perigee: 256.3325 deg Mean anomaly: 103.4266 deg Mean motion: 14.62762483 rev/day Decay rate: -6.0e-08 rev/day^2 Epoch rev: 52 Checksum: 279
Satellite: OBJECT K Catalog number: 41792 Epoch time: 16273.41959556 Element set: 999 Inclination: 98.2066 deg RA of node: 330.9646 deg Eccentricity: 0.0026739 Arg of perigee: 257.0054 deg Mean anomaly: 167.6479 deg Mean motion: 14.64040707 rev/day Decay rate: -4.4e-07 rev/day^2 Epoch rev: 44 Checksum: 325
/EX